ORBCOMM FM114 [+] (41179 NORAD) Tracking and Keplerian Element Data

This shows tracking and keplerian element data for the satellite.

Feedback or suggestion? Click here.




ElementValue
Catalog41179
NameORBCOMM FM114 [+]
Epoch Orbit13647
Epoch Day198.64790853
Epoch Year2018
RAAN288.2992
Inclination47.0034
Eccentricity0.000263
Argument of Perigee301.4146
Mean Anonmoly58.6481
Mean Motion14.54718245
Decay Rate-5.6E-07
L11 41179U 15081A 18198.64790853 -.00000056 00000-0 25349-4 0 9995
L22 41179 47.0034 288.2992 0002630 301.4146 58.6481 14.54718245136476

Live tracking and technical data element details for ORBCOMM FM114 [+] (NORAD 41179). ORBCOMM FM114 [+] can be tracked NOW for your location showing map with azimuth and elevation plus other details from your city location.

Track the satellite on the map from your city or location and see movement details for azimuth, elevation, latitude, longitude, range, height, and movement on the map or in text.







IsCatalogInMostPopularTable: catalog: 41179, numindb: 80
Update: records affected: 1



GetName: 41179 ORBCOMM FM114 [+]

Hit Count: updated at: Wed, 18 Jul 2018 20:17:40 GMT